Location: Asheville, NC
(35.6000°N, 82.5500°W)
Time: 17:22:38
(UTC-05:00)

Tiangong 1 - Pass Details

Date: 10 January 2018
Orbit: 262 x 287 km, 42.8° (Epoch: 21 January)

Event Time Altitude Azimuth Distance (km) Brightness Sun altitude
Rises 19:25:14 0° 229° (SW) 1,915 5.6 -21.8°
Reaches altitude 10° 19:27:12 10° 222° (SW) 1,097 4.1 -22.2°
Enters shadow 19:27:44 15° 218° (SW) 889 3.5 -22.3°
